Skip Page Navigation
NASA JPL Caltech
NASA Logo - Jet Propulsion Laboratory + View the NASA Portal
+ Center for Near-Earth Object Studies
JPL Home Earth Solar System Stars & Galaxies Technology
JPL Solar System Dynamics
BODIES ORBITS EPHEMERIDES TOOLS PHYSICAL DATA DISCOVERY FAQ SITE MAP

Significant website upgrade scheduled for September 27. More details available here.

JPL Small-Body Database Browser
Search: [ help ]  
63895 (2001 SZ5)
Classification: Main-belt Asteroid          SPK-ID: 2063895
Ephemeris | Orbit Diagram | Orbital Elements | Mission Design | Physical Parameters | Discovery Circumstances | Close-Approach Data ]

[ show orbit diagram ]
Orbital Elements at Epoch 2459396.5 (2021-Jul-01.0) TDB
Reference: JPL 30 (heliocentric ecliptic J2000)
 Element Value Uncertainty (1-sigma)   Units 
e .09096202352941871 3.6169e-08  
a 3.077230419750771 1.6533e-08 au
q 2.797319313903958 1.1247e-07 au
i 5.376691305233157 3.4255e-06 deg
node 98.92123483228877 4.5843e-05 deg
peri 126.8141886727175 5.1338e-05 deg
M 2.501434996428037 2.1694e-05 deg
tp 2459382.799854701794
(2021-Jun-17.29985470)
0.00011883 TDB
period 1971.689176171648
5.40
1.589e-05
4.35e-08
d
yr
n .1825845596510287 1.4715e-09 deg/d
Q 3.357141525597584 1.8037e-08 au
  Orbit Determination Parameters
   # obs. used (total)      1212  
   data-arc span      9033 days (24.73 yr)  
   first obs. used      1996-10-15  
   last obs. used      2021-07-09  
   planetary ephem.      DE441  
   SB-pert. ephem.      SB441-N16  
   condition code      0  
   norm. resid. RMS      .50608  
   source      ORB  
   producer      Otto Matic  
   solution date      2021-Aug-25 17:38:39  

Additional Information
 Earth MOID = 1.79225 au 
 Jupiter MOID = 1.63868 au 
 T_jup = 3.216 
[ hide covariance matrix ]
Orbital Elements at Epoch 2457523.5 (2016-May-15.0) TDB
Reference: JPL 30 (heliocentric ecliptic J2000)
 Element Value Uncertainty (1-sigma)   Units 
e .09167082687319129 3.6228e-08  
q 2.795191436096825 1.1263e-07 au
tp 2457405.053187826624
(2016-Jan-17.55318783)
0.00012142 TDB
node 98.94278860693611 4.5843e-05 deg
peri 125.9551068214915 5.1234e-05 deg
i 5.376862099255924 3.4256e-06 deg
  Orbit Determination Parameters
   # obs. used (total)      1212  
   data-arc span      9033 days (24.73 yr)  
   first obs. used      1996-10-15  
   last obs. used      2021-07-09  
   planetary ephem.      DE441  
   SB-pert. ephem.      SB441-N16  
   condition code      0  
   norm. resid. RMS      .50608  
   source      ORB  
   producer      Otto Matic  
   solution date      2021-Aug-25 17:38:39  

Additional Information
 Jupiter MOID = 1.63868 au 
 T_jup = 3.216 
Orbit Covariance (6×6)
  e q tp node peri i
e 1.312450876282625E-15 -4.044483786203141E-15 -8.153004504279033E-13 -1.13904397999756E-14 -1.117165778411182E-13 -1.167653462660663E-15
q -4.044483786203141E-15 1.26856735062824E-14 1.960025841609573E-12 3.364700052069747E-14 2.430370936269071E-13 3.808268945758162E-15
tp -8.153004504279033E-13 1.960025841609573E-12 1.474218951475152E-8 8.962345290297919E-13 2.802437871648953E-9 1.457614546106343E-12
node -1.13904397999756E-14 3.364700052069747E-14 8.962345290297919E-13 2.101600337538631E-9 -2.092612723853783E-9 5.655166148018119E-12
peri -1.117165778411182E-13 2.430370936269071E-13 2.802437871648953E-9 -2.092612723853783E-9 2.624948984589773E-9 -5.375588604876742E-12
i -1.167653462660663E-15 3.808268945758162E-15 1.457614546106343E-12 5.655166148018119E-12 -5.375588604876742E-12 1.173457858095336E-11

Ephemeris | Orbit Diagram | Orbital Elements | Mission Design | Physical Parameters | Discovery Circumstances | Close-Approach Data ]

Physical Parameter Table
Parameter Symbol Value Units Sigma Reference Notes
absolute magnitude H 14.44   n/a MPO636938  
diameter diameter 9.141 km 0.132 urn:nasa:pds:neowise_diameters_albedos::2.0[mainbelt] (http://adsabs.harvard.edu/abs/2011ApJ...741...68M)  
geometric albedo albedo 0.030   0.005 urn:nasa:pds:neowise_diameters_albedos::2.0[mainbelt] (http://adsabs.harvard.edu/abs/2011ApJ...741...68M)  

63895 (2001 SZ5)          Discovered 2001-Sep-18 by Kusnirak, P. at Ondrejov
Reference: 20030614/Numbers.arcLast Updated: 2004-04-19

[ show close-approach data ]
Alternate Designations
 2001 SZ5 = 1999 FM56 
Ephemeris | Orbit Diagram | Orbital Elements | Mission Design | Physical Parameters | Discovery Circumstances | Close-Approach Data ]
ABOUT SSD CREDITS/AWARDS PRIVACY/COPYRIGHT GLOSSARY LINKS
FirstGov 2021-Sep-26 12:21 UT
(server date/time)  
NASA Home Page
Site Manager:   Ryan S. Park
Webmaster  Alan B. Chamberlin